IZ3TCG-13 Weather Reports


Display with metric or nautical units.
time (UTC)temp
F
wind
direction
speed
MPH
gust
MPH
rain 1hr
in
rain 24hr
in
rain mn
in
humidity
%
barometer
mb
20260505100403 62 96 1.0 2.0 0.01 0.05 0.05 85 1013.0
20260505100004 62 88 0.0 2.0 0.02 0.05 0.05 85 1010.3
20260505095604 62 61 0.0 2.0 0.02 0.05 0.05 87 1010.4
20260505095205 61 69 2.0 2.0 0.04 0.05 0.05 87 1010.5
20260505094804 61 95 0.0 4.0 0.04 0.05 0.05 87 1010.5
20260505094403 61 90 0.0 4.0 0.05 0.05 0.05 88 1010.3
20260505094003 60 60 1.0 4.0 0.05 0.05 0.05 86 1010.3
20260505093604 60 53 0.0 4.0 0.05 0.05 0.05 90 1010.1
20260505093204 61 60 2.0 4.0 0.05 0.05 0.05 89 1010.1
20260505092804 60 53 0.0 2.0 0.05 0.05 0.05 90 1010.1
20260505092613 60 59 1.0 2.0 0.05 0.05 0.05 89 1010.3
20260505092003 61 62 0.0 2.0 0.05 0.05 0.05 88 1010.2
20260505091603 61 44 0.0 2.0 0.05 0.05 0.05 90 1010.3
20260505091204 61 22 0.0 2.0 0.05 0.05 0.05 88 1010.3
20260505090804 61 0 0.0 0.0 0.04 0.04 0.04 88 1010.4
20260505090403 62 0 0.0 0.0 0.04 0.04 0.04 87 1010.2
20260505090214 62 0 0.0 0.0 0.04 0.04 0.04 86 1010.2
20260505085603 61 0 0.0 0.0 0.02 0.02 0.02 83 1010.3
20260505085204 62 22 0.0 2.0 0.01 0.01 0.01 84 1010.4
20260505084803 61 22 0.0 2.0 0.01 0.01 0.01 82 1010.2
20260505084403 62 0 0.0 0.0 0.00 0.00 0.00 83 1010.1
20260505084004 62 0 0.0 0.0 0.00 0.00 0.00 84 1010.1
20260505083603 62 0 0.0 0.0 0.00 0.00 0.00 83 1010.2
20260505083204 62 0 0.0 0.0 0.00 0.00 0.00 80 1010.0
20260505082804 62 0 0.0 0.0 0.00 0.00 0.00 81 1010.2
20260505082613 62 0 0.0 0.0 0.00 0.00 0.00 82 1010.1
20260505082218 62 0 0.0 0.0 0.00 0.00 0.00 81 1010.1
20260505081604 62 270 0.0 2.0 0.00 0.00 0.00 81 1010.2
20260505081203 62 270 0.0 2.0 0.00 0.00 0.00 78 1009.8
20260505080804 62 270 1.0 2.0 0.00 0.00 0.00 80 1010.0
20260505080403 62 0 0.0 0.0 0.00 0.00 0.00 82 1010.2
20260505080003 61 0 0.0 0.0 0.00 0.00 0.00 82 1010.2
20260505075603 61 0 0.0 0.0 0.00 0.00 0.00 82 1010.2
20260505075203 61 0 0.0 0.0 0.00 0.00 0.00 83 1010.1
20260505074803 61 0 0.0 0.0 0.00 0.00 0.00 84 1010.3
20260505074403 61 90 0.0 2.0 0.00 0.00 0.00 84 1010.2
20260505074003 61 90 0.0 2.0 0.00 0.00 0.00 82 1010.1
20260505073603 61 90 0.0 2.0 0.00 0.00 0.00 82 1010.2
20260505073203 61 90 0.0 2.0 0.00 0.00 0.00 82 1010.3
20260505072804 60 90 0.0 2.0 0.00 0.00 0.00 83 1010.2
20260505072404 60 90 0.0 2.0 0.00 0.00 0.00 82 1010.2
20260505072003 60 90 0.0 2.0 0.00 0.00 0.00 83 1010.0
20260505071603 60 90 1.0 2.0 0.00 0.00 0.00 82 1010.0
20260505071205 61 90 0.0 2.0 0.00 0.00 0.00 83 1010.0
20260505071017 60 90 0.0 2.0 0.00 0.00 0.00 83 1010.0
20260505070616 60 90 0.0 2.0 0.00 0.00 0.00 82 1010.1
20260505070004 60 90 0.0 2.0 0.00 0.00 0.00 85 1009.9
20260505065603 60 112 0.0 2.0 0.00 0.00 0.00 84 1010.0
20260505065204 60 98 0.0 2.0 0.00 0.00 0.00 84 1009.8
20260505064804 60 91 0.0 2.0 0.00 0.00 0.00 83 1009.8
20260505064613 60 87 1.0 4.0 0.00 0.00 0.00 82 1009.8
20260505064003 60 82 2.0 4.0 0.00 0.00 0.00 83 1009.7
20260505063603 60 89 1.0 4.0 0.00 0.00 0.00 84 1009.7
20260505063203 60 86 2.0 4.0 0.00 0.00 0.00 84 1009.8
20260505062803 60 83 2.0 4.0 0.00 0.00 0.00 85 1009.9
20260505062403 60 84 1.0 4.0 0.00 0.00 0.00 89 1009.7
20260505062003 60 83 0.0 4.0 0.00 0.00 0.00 89 1009.6
20260505061603 60 86 1.0 4.0 0.00 0.00 0.00 88 1009.7
20260505061203 60 87 2.0 4.0 0.00 0.00 0.00 88 1009.5
20260505060804 60 85 1.0 4.0 0.00 0.00 0.00 88 1009.6
20260505060403 60 81 0.0 4.0 0.00 0.00 0.00 88 1009.6
20260505060004 60 81 2.0 4.0 0.00 0.00 0.00 87 1009.5
20260505055603 60 87 2.0 4.0 0.00 0.00 0.00 88 1009.4
20260505055204 60 96 0.0 2.0 0.00 0.00 0.00 90 1009.6
20260505054804 60 91 0.0 4.0 0.00 0.00 0.00 90 1009.4
20260505054403 60 88 0.0 4.0 0.00 0.00 0.00 90 1009.4
20260505054003 60 90 1.0 4.0 0.00 0.00 0.00 90 1009.3
20260505053603 60 92 2.0 2.0 0.00 0.00 0.00 90 1009.3
20260505053205 60 94 0.0 2.0 0.00 0.00 0.00 90 1009.2
20260505052803 60 24 1.0 2.0 0.00 0.00 0.00 93 1009.0
20260505052404 60 22 0.0 2.0 0.00 0.00 0.00 93 1009.0
20260505052004 60 25 1.0 2.0 0.00 0.00 0.00 94 1009.1
20260505051603 60 30 0.0 2.0 0.00 0.00 0.00 94 1008.9
20260505051204 60 90 0.0 2.0 0.00 0.00 0.00 95 1009.0
20260505050804 60 78 0.0 2.0 0.00 0.00 0.00 96 1009.2
20260505050404 60 83 1.0 4.0 0.00 0.00 0.00 96 1009.2
20260505041603 59 12 0.0 4.0 0.00 0.00 0.00 97 1009.2
20260505041203 59 9 0.0 4.0 0.00 0.00 0.00 97 1009.3
20260505040803 60 14 0.0 4.0 0.00 0.00 0.00 97 1009.2
20260505040404 60 17 1.0 4.0 0.00 0.00 0.00 97 1009.1
20260505040004 60 19 2.0 4.0 0.00 0.00 0.00 97 1009.1
20260505035603 60 11 2.0 4.0 0.00 0.00 0.00 97 1009.3
20260505035203 60 10 2.0 4.0 0.00 0.00 0.00 96 1009.0
20260505034804 60 9 1.0 4.0 0.00 0.00 0.00 96 1009.1
20260505034403 60 21 0.0 2.0 0.00 0.00 0.00 96 1009.1
20260505034214 60 22 1.0 2.0 0.00 0.00 0.00 96 1009.2
20260505033603 59 17 1.0 4.0 0.00 0.00 0.00 96 1008.8
20260505033203 59 19 1.0 4.0 0.00 0.00 0.00 96 1009.3
20260505033017 59 20 2.0 4.0 0.00 0.00 0.00 96 1009.0
20260505032616 59 19 0.0 4.0 0.00 0.00 0.00 95 1009.1
20260505032216 59 17 0.0 4.0 0.00 0.00 0.00 95 1009.1
20260505031815 59 11 1.0 4.0 0.00 0.00 0.00 95 1009.1
20260505031203 59 11 0.0 4.0 0.00 0.00 0.00 95 1009.2
20260505030803 59 19 1.0 4.0 0.00 0.00 0.00 95 1009.2
20260505030403 59 9 2.0 4.0 0.00 0.00 0.00 95 1009.1
20260505030004 59 353 1.0 4.0 0.00 0.00 0.00 95 1009.3
20260505025817 60 343 1.0 4.0 0.00 0.00 0.00 95 1009.2
20260505025204 60 343 2.0 4.0 0.00 0.00 0.00 95 1009.2
20260505024803 60 343 0.0 2.0 0.00 0.00 0.00 95 1009.3
20260505024403 60 349 2.0 2.0 0.00 0.00 0.00 96 1009.2
20260505024003 60 355 1.0 2.0 0.00 0.00 0.00 96 1009.2
20260505023604 60 353 1.0 2.0 0.00 0.00 0.00 96 1009.4
20260505023203 61 359 0.0 2.0 0.00 0.00 0.00 96 1009.3
20260505022803 61 12 1.0 2.0 0.00 0.00 0.00 96 1009.4
20260505022404 61 17 0.0 2.0 0.00 0.00 0.00 96 1009.4
20260505022003 61 16 1.0 2.0 0.00 0.00 0.00 96 1009.5
20260505021604 60 15 1.0 2.0 0.00 0.00 0.00 96 1009.6
20260505021203 60 23 0.0 2.0 0.00 0.00 0.00 96 1009.5
20260505020803 60 31 1.0 2.0 0.00 0.00 0.00 95 1009.4
20260505020614 60 47 0.0 2.0 0.00 0.00 0.00 95 1009.8
20260505020003 60 24 0.0 2.0 0.00 0.00 0.00 95 1009.7
20260505015603 60 43 1.0 2.0 0.00 0.00 0.00 95 1009.7
20260505015204 60 75 0.0 2.0 0.00 0.00 0.00 95 1009.7
20260505014803 60 81 0.0 2.0 0.00 0.00 0.00 94 1009.6
20260505014404 60 84 1.0 2.0 0.00 0.00 0.00 94 1009.6
20260505014004 59 90 0.0 2.0 0.00 0.00 0.00 93 1009.8
20260505013603 59 88 0.0 2.0 0.00 0.00 0.00 92 1009.8
20260505013204 59 86 1.0 2.0 0.00 0.00 0.00 92 1009.8
20260505012803 59 73 1.0 2.0 0.00 0.00 0.00 91 1009.8
20260505012404 59 0 0.0 0.0 0.00 0.00 0.00 90 1009.9
20260505012003 59 62 0.0 2.0 0.00 0.00 0.00 89 1009.8
20260505011603 59 63 0.0 2.0 0.00 0.00 0.00 88 1009.9
20260505011203 59 70 0.0 2.0 0.00 0.00 0.00 87 1010.0
20260505010803 60 80 0.0 2.0 0.00 0.00 0.00 87 1009.9
20260505010615 60 82 0.0 2.0 0.00 0.00 0.00 87 1009.9
20260505010214 60 75 0.0 2.0 0.00 0.00 0.00 86 1010.1
20260505005813 59 90 0.0 2.0 0.00 0.00 0.00 86 1010.2
20260505005413 59 63 0.0 2.0 0.00 0.00 0.00 85 1010.3
20260505004803 59 36 0.0 2.0 0.00 0.00 0.00 84 1010.1
20260505004616 59 26 1.0 2.0 0.00 0.00 0.00 84 1010.3
20260505004003 59 17 0.0 2.0 0.00 0.00 0.00 83 1010.4
20260505003603 59 40 0.0 2.0 0.00 0.00 0.00 83 1010.5
20260505003204 59 90 0.0 2.0 0.00 0.00 0.00 82 1010.6
20260505003014 59 90 0.0 2.0 0.00 0.00 0.00 82 1010.7
20260505002613 59 90 0.0 2.0 0.00 0.00 0.00 82 1010.5
20260505002004 59 90 1.0 2.0 0.00 0.00 0.00 81 1010.8
20260505001604 59 90 1.0 2.0 0.00 0.00 0.00 82 1010.9
20260505001203 59 90 0.0 2.0 0.00 0.00 0.00 82 1010.9
20260505000804 58 90 0.0 2.0 0.00 0.00 0.00 82 1010.8
20260505000615 59 90 0.0 2.0 0.00 0.00 0.00 81 1011.0
20260505000004 59 90 0.0 2.0 0.00 0.00 0.00 81 1010.9
20260504235603 59 88 0.0 2.0 0.00 0.00 0.00 82 1010.8
20260504235204 59 71 0.0 2.0 0.00 0.00 0.00 81 1011.1
20260504234803 59 83 0.0 2.0 0.00 0.00 0.00 80 1010.8
20260504234403 59 90 0.0 2.0 0.00 0.00 0.00 80 1011.0
20260504234004 59 89 0.0 2.0 0.00 0.00 0.00 80 1011.0
20260504233603 59 88 0.0 2.0 0.00 0.00 0.00 79 1011.1
20260504233203 59 87 1.0 4.0 0.00 0.00 0.00 79 1010.9
20260504232804 59 87 1.0 4.0 0.00 0.00 0.00 79 1010.9
20260504232404 59 87 1.0 4.0 0.00 0.00 0.00 79 1011.1
20260504232004 59 80 2.0 2.0 0.00 0.00 0.00 78 1011.5
20260504231603 60 58 1.0 2.0 0.00 0.00 0.00 79 1011.3
20260504231203 60 67 0.0 2.0 0.00 0.00 0.00 77 1011.6
20260504230804 60 87 0.0 2.0 0.00 0.00 0.00 77 1011.3
20260504230403 60 88 0.0 2.0 0.00 0.00 0.00 77 1011.5
20260504230215 60 87 0.0 2.0 0.00 0.00 0.00 77 1011.4
20260504225603 60 90 0.0 2.0 0.00 0.00 0.00 78 1011.6
20260504225203 60 0 0.0 0.0 0.00 0.00 0.00 76 1011.5
20260504224804 60 0 0.0 0.0 0.00 0.00 0.00 76 1011.4
20260504224404 60 0 0.0 0.0 0.00 0.00 0.00 76 1011.5
20260504224003 60 0 0.0 0.0 0.00 0.00 0.00 77 1011.5
20260504223603 60 0 0.0 0.0 0.00 0.00 0.00 77 1011.7
20260504223203 60 0 0.0 0.0 0.00 0.00 0.00 77 1011.6
20260504222803 60 303 0.0 2.0 0.00 0.00 0.00 77 1011.8
20260504222403 60 322 0.0 2.0 0.00 0.00 0.00 77 1011.6
20260504222004 60 328 0.0 2.0 0.00 0.00 0.00 77 1011.6
20260504221605 60 0 0.0 0.0 0.00 0.00 0.00 78 1011.6
20260504221203 61 315 0.0 2.0 0.00 0.00 0.00 77 1011.5
20260504220803 61 315 0.0 2.0 0.00 0.00 0.00 76 1011.6
20260504220617 61 315 0.0 2.0 0.00 0.00 0.00 75 1011.7
20260504220008 61 327 0.0 2.0 0.00 0.00 0.00 76 1011.7
20260504215603 61 326 1.0 2.0 0.00 0.00 0.00 76 1011.7
20260504215204 61 300 1.0 2.0 0.00 0.00 0.00 77 1011.7
20260504214803 61 277 0.0 2.0 0.00 0.00 0.00 77 1011.6
20260504214403 61 270 0.0 2.0 0.00 0.00 0.00 77 1011.6
20260504214003 60 0 0.0 0.0 0.00 0.00 0.00 78 1011.5
20260504213604 60 0 0.0 0.0 0.00 0.00 0.00 78 1011.6
20260504213417 60 0 0.0 0.0 0.00 0.00 0.00 78 1011.7
20260504212803 59 0 0.0 0.0 0.00 0.00 0.00 79 1011.4
20260504212403 60 0 0.0 0.0 0.00 0.00 0.00 79 1011.5
20260504212003 60 0 0.0 0.0 0.00 0.00 0.00 79 1011.7
20260504211603 60 0 0.0 0.0 0.00 0.00 0.00 78 1011.4
20260504211204 60 202 0.0 2.0 0.00 0.00 0.00 78 1011.6
20260504210804 60 202 0.0 2.0 0.00 0.00 0.00 77 1011.5
20260504210403 60 202 0.0 2.0 0.00 0.00 0.00 77 1011.7
20260504210004 60 0 0.0 0.0 0.00 0.00 0.00 77 1011.7
20260504205816 60 0 0.0 0.0 0.00 0.00 0.00 77 1011.5
20260504205203 61 0 0.0 0.0 0.00 0.00 0.00 76 1011.5
20260504204804 61 180 0.0 2.0 0.00 0.00 0.00 75 1011.6
20260504204403 61 180 0.0 2.0 0.00 0.00 0.00 75 1011.4
20260504204004 61 195 0.0 2.0 0.00 0.00 0.00 75 1011.6
20260504203603 61 214 0.0 2.0 0.00 0.00 0.00 75 1011.6
20260504203204 61 218 0.0 2.0 0.00 0.00 0.00 75 1011.4
20260504202804 61 0 0.0 0.0 0.00 0.00 0.00 76 1011.6
20260504202404 60 0 0.0 0.0 0.00 0.00 0.00 76 1011.6
20260504202004 60 0 0.0 0.0 0.00 0.00 0.00 76 1011.7
20260504201815 60 0 0.0 0.0 0.00 0.00 0.00 76 1011.4
20260504201204 60 0 0.0 0.0 0.00 0.00 0.00 76 1011.5
20260504200803 60 0 0.0 0.0 0.00 0.00 0.00 76 1011.5
20260504200404 61 0 0.0 0.0 0.00 0.00 0.00 75 1011.5
20260504200217 61 0 0.0 0.0 0.00 0.00 0.00 74 1011.5
20260504195817 61 0 0.0 0.0 0.00 0.00 0.00 73 1011.5
20260504195204 62 0 0.0 0.0 0.00 0.00 0.00 72 1011.2
20260504194803 62 0 0.0 0.0 0.00 0.00 0.00 72 1011.5
20260504194404 62 0 0.0 0.0 0.00 0.00 0.00 71 1011.4
20260504194214 62 0 0.0 0.0 0.00 0.00 0.00 71 1011.3
20260504193603 63 0 0.0 0.0 0.00 0.00 0.00 70 1011.4
20260504193203 63 22 0.0 2.0 0.00 0.00 0.00 69 1011.3
20260504192804 64 46 0.0 4.0 0.00 0.00 0.00 68 1011.4
20260504192617 64 46 0.0 4.0 0.00 0.00 0.00 67 1011.2
20260504192216 64 45 0.0 4.0 0.00 0.00 0.00 66 1011.3
20260504191603 64 94 0.0 4.0 0.00 0.00 0.00 65 1011.2
20260504191203 65 80 1.0 4.0 0.00 0.00 0.00 64 1011.6
20260504190803 65 86 0.0 4.0 0.00 0.00 0.00 62 1011.4
20260504190403 65 89 2.0 4.0 0.00 0.00 0.00 61 1011.5
20260504190003 65 89 1.0 4.0 0.00 0.00 0.00 61 1011.3
20260504185817 65 84 2.0 4.0 0.00 0.00 0.00 61 1011.2
20260504185204 65 74 1.0 2.0 0.00 0.00 0.00 61 1011.3
20260504184803 65 90 0.0 2.0 0.00 0.00 0.00 61 1011.1
20260504184403 65 112 0.0 2.0 0.00 0.00 0.00 61 1011.4
20260504184215 66 121 0.0 2.0 0.00 0.00 0.00 60 1011.3
20260504183603 67 136 0.0 4.0 0.00 0.00 0.00 60 1011.2
20260504183204 67 155 0.0 4.0 0.00 0.00 0.00 59 1011.2
20260504182803 67 153 0.0 2.0 0.00 0.00 0.00 58 1011.2
20260504182404 67 113 1.0 2.0 0.00 0.00 0.00 58 1011.0
20260504182217 67 60 0.0 2.0 0.00 0.00 0.00 58 1011.2
20260504181603 68 57 0.0 2.0 0.00 0.00 0.00 58 1011.2
20260504181203 69 94 1.0 4.0 0.00 0.00 0.00 56 1011.1
20260504181015 69 100 0.0 4.0 0.00 0.00 0.00 57 1011.1
20260504180403 70 118 2.0 4.0 0.00 0.00 0.00 55 1011.2
20260504180003 70 119 1.0 4.0 0.00 0.00 0.00 54 1010.9
20260504175813 70 120 0.0 4.0 0.00 0.00 0.00 53 1011.1
20260504175203 71 159 2.0 4.0 0.00 0.00 0.00 52 1011.0
20260504174803 71 160 1.0 4.0 0.00 0.00 0.00 53 1010.8
20260504174404 72 131 2.0 4.0 0.00 0.00 0.00 51 1010.9
20260504174215 72 127 0.0 9.0 0.00 0.00 0.00 52 1010.8
20260504173603 73 105 0.0 9.0 0.00 0.00 0.00 53 1010.8
20260504173204 73 91 4.0 9.0 0.00 0.00 0.00 52 1011.0
20260504173013 73 80 1.0 8.0 0.00 0.00 0.00 53 1010.8
20260504172403 73 88 3.0 9.0 0.00 0.00 0.00 52 1010.7
20260504172004 74 99 4.0 9.0 0.00 0.00 0.00 50 1010.9
20260504171603 75 108 1.0 9.0 0.00 0.00 0.00 47 1010.7
20260504171203 75 81 0.0 4.0 0.00 0.00 0.00 44 1010.5
20260504170803 74 88 0.0 4.0 0.00 0.00 0.00 44 1010.5
20260504170403 74 82 0.0 4.0 0.00 0.00 0.00 45 1010.7
20260504160403 75 79 3.0 13.0 0.00 0.00 0.00 49 1010.9
20260504160214 75 77 4.0 13.0 0.00 0.00 0.00 48 1010.9
20260504150803 77 71 4.0 7.0 0.00 0.00 0.00 51 1011.2
20260504150403 76 78 3.0 7.0 0.00 0.00 0.00 54 1011.1
20260504141203 78 90 4.0 8.0 0.00 0.00 0.00 53 1011.4
20260504140804 78 90 2.0 8.0 0.00 0.00 0.00 52 1011.2
20260504140403 79 83 4.0 9.0 0.00 0.00 0.00 52 1011.5
20260504130803 78 107 2.0 9.0 0.00 0.00 0.00 52 1011.7
20260504130404 78 92 2.0 9.0 0.00 0.00 0.00 55 1011.9
20260504120217 81 197 0.0 4.0 0.00 0.00 0.00 42 1012.2
20260504110613 79 100 2.0 4.0 0.00 0.00 0.00 48 1012.6